Los Alamos, NM

7:52 PM MDT on September 27, 2016 (GMT -0600)
Los Alamos

Weather History for KLAM - February, 2014

Change the Weather History Date:

Sunday, February 2, 2014

  Actual Average Record
Temperature  
Mean Temperature 28 °F -  
Max Temperature 37 °F 39 °F 57 °F (1953)
Min Temperature 20 °F 18 °F -9 °F (1985)
Degree Days  
Heating Degree Days 36    
Moisture  
Dew Point 10 °F    
Average Humidity 48    
Maximum Humidity 72    
Minimum Humidity 23    
Precipitation  
Precipitation 0.00 in - - ()
Sea Level Pressure  
Sea Level Pressure 29.99 in    
Wind  
Wind Speed 2 mph (South)    
Max Wind Speed 10 mph    
Max Gust Speed 16 mph    
Visibility 10 miles    
Events      
Averages and records for this station are not official NWS values.
T = Trace of Precipitation, MM = Missing Value Source: NWS Daily Summary

Daily Weather History Graph

Daily Weather History Graph

Search for Another Location

Airport or City:

Trip Planner

Search our weather history database for the weather conditions in past years. The results will help you decide how hot, cold, wet, or windy it might be!

Date:

Astronomy

Feb. 02, 2014 Rise Set
Actual Time 7:04 AM MST 5:33 PM MST
Civil Twilight 6:37 AM MST 6:00 PM MST
Nautical Twilight 6:07 AM MST 6:30 PM MST
Astronomical Twilight 5:37 AM MST 7:00 PM MST
Moon 8:40 AM MST (2/2) 9:11 PM MST (2/2)
Length of Visible Light 11h 22m
Length of Day
10h 28m
Waxing Crescent, 12% of the Moon is Illuminated
Feb 2
Waxing Crescent
Feb 6
First Quarter
Feb 14
Full
Feb 22
Last Quarter
Mar 1
New

Hourly Weather History & Observations

Time (MST) Temp. Windchill Dew Point Humidity Pressure Visibility Wind Dir Wind Speed Gust Speed Precip Events Conditions
12:15 AM 26.8 °F - 10.4 °F 50% 29.97 in 10.0 mi Calm Calm - N/A   Scattered Clouds
12:35 AM 26.4 °F - 10.6 °F 51% 29.96 in 10.0 mi Calm Calm - N/A   Clear
12:55 AM 26.4 °F 20.9 °F 8.6 °F 47% 29.96 in 10.0 mi SW 4.6 mph - N/A   Clear
1:15 AM 25.3 °F - 5.4 °F 43% 29.96 in 10.0 mi Calm Calm - N/A   Clear
1:35 AM 26.1 °F - 4.1 °F 39% 29.96 in 10.0 mi Calm Calm - N/A   Clear
1:55 AM 26.2 °F - 3.4 °F 38% 29.97 in 10.0 mi Calm Calm - N/A   Mostly Cloudy
2:15 AM 25.5 °F - 6.6 °F 45% 29.97 in 10.0 mi Calm Calm - N/A   Mostly Cloudy
2:35 AM 24.4 °F - 8.8 °F 51% 29.97 in 10.0 mi Calm Calm - N/A   Scattered Clouds
2:55 AM 24.1 °F - 9.5 °F 54% 29.97 in 10.0 mi Calm Calm - N/A   Clear
3:15 AM 23.9 °F - 9.3 °F 54% 29.97 in 10.0 mi Calm Calm - N/A   Clear
3:35 AM 23.4 °F - 9.3 °F 55% 29.97 in 10.0 mi Calm Calm - N/A   Clear
3:55 AM 23.0 °F - 9.7 °F 57% 29.97 in 10.0 mi Calm Calm - N/A   Clear
4:15 AM 22.1 °F - 10.6 °F 61% 29.98 in 10.0 mi Calm Calm - N/A   Clear
4:35 AM 22.5 °F - 11.3 °F 62% 29.98 in 10.0 mi Calm Calm - N/A   Clear
4:55 AM 21.7 °F 17.0 °F 11.3 °F 64% 29.99 in 10.0 mi SSW 3.5 mph - N/A   Clear
5:15 AM 21.9 °F - 11.8 °F 65% 29.99 in 10.0 mi Calm Calm - N/A   Clear
5:35 AM 21.2 °F 14.9 °F 12.0 °F 68% 29.99 in 10.0 mi South 4.6 mph - N/A   Clear
5:55 AM 21.4 °F - 13.1 °F 70% 30.00 in 10.0 mi Calm Calm - N/A   Clear
6:15 AM 21.2 °F - 12.9 °F 70% 30.00 in 10.0 mi Calm Calm - N/A   Clear
6:35 AM 22.1 °F - 13.1 °F 68% 30.01 in 10.0 mi Calm Calm - N/A   Clear
6:55 AM 21.9 °F - 12.2 °F 66% 30.02 in 10.0 mi Calm Calm - N/A   Clear
7:15 AM 20.3 °F - 12.6 °F 72% 30.03 in 10.0 mi Calm Calm - N/A   Clear
7:35 AM 20.3 °F - 12.2 °F 71% 30.04 in 10.0 mi Calm Calm - N/A   Clear
7:55 AM 21.2 °F - 13.1 °F 71% 30.04 in 10.0 mi Calm Calm - N/A   Clear
8:15 AM 21.7 °F - 13.1 °F 69% 30.05 in 10.0 mi Calm Calm - N/A   Clear
8:35 AM 23.0 °F - 14.5 °F 70% 30.05 in 10.0 mi Calm Calm - N/A   Clear
8:55 AM 23.9 °F - 15.8 °F 71% 30.06 in 10.0 mi Calm Calm - N/A   Clear
9:15 AM 24.6 °F - 16.3 °F 71% 30.06 in 10.0 mi Calm Calm - N/A   Clear
9:35 AM 24.8 °F - 16.0 °F 69% 30.06 in 10.0 mi Calm Calm - N/A   Clear
9:55 AM 26.2 °F - 15.8 °F 65% 30.07 in 10.0 mi Calm Calm - N/A   Clear
10:15 AM 27.3 °F - 14.5 °F 59% 30.07 in 10.0 mi Calm Calm - N/A   Clear
10:35 AM 28.4 °F - 14.5 °F 56% 30.06 in 10.0 mi Calm Calm - N/A   Clear
10:55 AM 29.7 °F - 14.9 °F 54% 30.06 in 10.0 mi Calm Calm - N/A   Clear
11:15 AM 29.8 °F - 13.1 °F 50% 30.06 in 10.0 mi Calm Calm - N/A   Clear
11:35 AM 31.1 °F - 12.0 °F 45% 30.05 in 10.0 mi Calm Calm - N/A   Clear
11:55 AM 31.8 °F - 12.4 °F 45% 30.04 in 10.0 mi Calm Calm - N/A   Clear
12:15 PM 32.0 °F 28.7 °F 11.5 °F 43% 30.03 in 10.0 mi SE 3.5 mph - N/A   Clear
12:35 PM 33.1 °F 26.9 °F 11.5 °F 41% 30.02 in 10.0 mi ESE 6.9 mph - N/A   Clear
12:55 PM 33.6 °F 30.6 °F 10.6 °F 38% 30.01 in 10.0 mi SSE 3.5 mph - N/A   Clear
1:15 PM 34.7 °F 30.6 °F 12.6 °F 40% 29.99 in 10.0 mi SE 4.6 mph - N/A   Scattered Clouds
1:35 PM 34.5 °F 30.4 °F 12.4 °F 40% 29.98 in 10.0 mi ESE 4.6 mph - N/A   Clear
1:55 PM 35.2 °F 29.5 °F 12.4 °F 39% 29.98 in 10.0 mi SE 6.9 mph - N/A   Scattered Clouds
2:15 PM 35.1 °F 28.6 °F 12.7 °F 40% 29.97 in 10.0 mi South 8.1 mph - N/A   Clear
2:35 PM 35.6 °F 31.7 °F 12.6 °F 39% 29.97 in 10.0 mi SSE 4.6 mph - N/A   Clear
2:55 PM 36.3 °F 30.1 °F 12.2 °F 37% 29.96 in 10.0 mi SSE 8.1 mph - N/A   Clear
3:15 PM 36.9 °F - 8.1 °F 30% 29.96 in 10.0 mi Calm Calm - N/A   Clear
3:35 PM 37.4 °F 32.1 °F 5.0 °F 26% 29.96 in 10.0 mi South 6.9 mph - N/A   Clear
3:55 PM 37.6 °F 32.3 °F 4.3 °F 25% 29.95 in 10.0 mi ESE 6.9 mph - N/A   Clear
4:15 PM 37.6 °F 30.5 °F 2.1 °F 23% 29.95 in 10.0 mi SSE 10.4 mph - N/A   Clear
4:35 PM 37.0 °F 30.4 °F 2.1 °F 23% 29.95 in 10.0 mi SSE 9.2 mph 16.1 mph N/A   Clear
4:55 PM 36.5 °F 29.7 °F 4.3 °F 26% 29.95 in 10.0 mi SSE 9.2 mph - N/A   Clear
5:15 PM 34.7 °F 26.9 °F 5.9 °F 30% 29.96 in 10.0 mi South 10.4 mph - N/A   Clear
5:35 PM 34.0 °F 29.8 °F 6.6 °F 32% 29.95 in 10.0 mi SSE 4.6 mph - N/A   Clear
5:55 PM 33.3 °F 25.7 °F 7.5 °F 34% 29.97 in 10.0 mi South 9.2 mph - N/A   Clear
6:15 PM 33.1 °F 26.9 °F 8.4 °F 36% 29.97 in 10.0 mi South 6.9 mph - N/A   Clear
6:35 PM 32.9 °F 27.5 °F 9.1 °F 37% 29.98 in 10.0 mi South 5.8 mph - N/A   Clear
6:55 PM 32.5 °F 29.3 °F 9.1 °F 38% 29.99 in 10.0 mi South 3.5 mph - N/A   Clear
7:15 PM 32.2 °F 27.7 °F 9.5 °F 39% 29.99 in 10.0 mi South 4.6 mph - N/A   Scattered Clouds
7:35 PM 32.4 °F 27.9 °F 7.7 °F 36% 29.99 in 10.0 mi South 4.6 mph - N/A   Clear
7:55 PM 32.0 °F - 9.5 °F 39% 29.99 in 10.0 mi Calm Calm - N/A   Clear
8:15 PM 31.8 °F 27.3 °F 10.0 °F 40% 29.99 in 10.0 mi South 4.6 mph - N/A   Clear
8:35 PM 32.0 °F 26.4 °F 9.5 °F 39% 29.99 in 10.0 mi South 5.8 mph - N/A   Clear
8:55 PM 32.0 °F 25.6 °F 10.8 °F 41% 29.98 in 10.0 mi South 6.9 mph - N/A   Clear
9:15 PM 31.8 °F 23.9 °F 11.1 °F 42% 29.98 in 10.0 mi South 9.2 mph - N/A   Clear
9:35 PM 31.5 °F 24.9 °F 11.1 °F 43% 29.98 in 10.0 mi SSW 6.9 mph - N/A   Clear
9:55 PM 31.6 °F 24.4 °F 10.8 °F 42% 29.98 in 10.0 mi SSW 8.1 mph - N/A   Clear
10:15 PM 30.6 °F 24.7 °F 10.9 °F 44% 29.97 in 10.0 mi SW 5.8 mph - N/A   Clear
10:35 PM 30.0 °F 25.2 °F 11.1 °F 45% 29.97 in 10.0 mi SSW 4.6 mph - N/A   Clear
10:55 PM 30.6 °F 24.7 °F 11.7 °F 45% 29.97 in 10.0 mi South 5.8 mph - N/A   Clear
11:15 PM 31.8 °F 26.2 °F 12.2 °F 44% 29.97 in 10.0 mi South 5.8 mph - N/A   Clear
11:35 PM 31.6 °F 28.3 °F 12.0 °F 44% 29.95 in 10.0 mi SSE 3.5 mph - N/A   Clear
11:55 PM 30.9 °F 26.2 °F 11.7 °F 45% 29.95 in 10.0 mi SSE 4.6 mph - N/A   Clear